Location: Sternwarte Stuttgart
(48.7670°N, 9.1830°E)
Time: 13:04:16
(UTC+02:00)

Daily predictions for brighter satellites

Satellite Brightness Start Highest point End
(mag) Time Altitude Azimuth Time Altitude Azimuth Time Altitude Azimuth
CZ-2C R/B 4.4 21:18:22 10° N 21:23:17 39° WNW 21:28:18 10° SW
SL-08 ROCKET BODY 4.4 21:18:30 10° N 21:24:27 76° E 21:30:18 10° SSE
USA 290 3.3 21:24:01 10° N 21:27:00 32° ENE 21:29:56 10° SE
Terra 4.0 21:25:45 10° ENE 21:27:41 12° NE 21:29:37 10° NNE
USA 307 4.1 21:24:39 10° WNW 21:28:42 40° N 21:32:46 10° ENE
Cosmos 1842 Rocket 4.1 21:25:18 10° SSW 21:29:45 66° WNW 21:34:15 10° N
CREW DRAGON DEMO-1 DEB 3.6 21:27:11 10° W 21:29:45 43° N 21:32:19 10° ENE
Ariane Rocket 3.1 21:24:55 10° SSE 21:29:58 88° WSW 21:35:05 10° NNW
FALCON 9 DEB 4.2 21:29:54 10° W 21:32:38 30° SW 21:35:22 10° SSE
Cosmos 2263 Rocket 3.7 21:27:36 10° WSW 21:32:52 42° NW 21:38:12 10° NNE
Cosmos 1606 2.6 21:31:50 10° S 21:35:35 80° E 21:39:23 10° NNE
Cosmos 1844 Rocket 2.7 21:32:10 10° S 21:37:36 57° ESE 21:43:05 10° NE
SL-4 R/B 3.0 21:37:08 10° WNW 21:41:15 41° SW 21:45:34 10° SE
SPOT 1/Viking Rocket 4.2 21:36:27 10° SE 21:41:18 41° ENE 21:46:10 10° N
USA 308 4.1 21:38:11 10° WNW 21:42:16 41° N 21:46:21 10° ENE
Cosmos 1805 Rocket 3.5 21:37:56 10° N 21:42:17 76° E 21:46:38 10° SSE
MetOp-B 4.5 21:37:22 10° SE 21:42:33 53° ENE 21:47:45 10° N
Cosmos 1386 Rocket 4.4 21:37:58 10° N 21:44:01 73° E 21:50:04 10° SSE
X-37B 1.1 21:42:05 10° WSW 21:45:07 42° S 21:47:53 12° ESE
ARIANE 5 R/B 3.8 21:43:07 11° ESE 21:46:43 28° ENE 21:50:25 10° N
Cosmos 1633 Rocket 3.8 21:46:36 10° N 21:50:43 37° ENE 21:54:17 13° SE
Cosmos 1745 Rocket 4.0 21:44:59 10° N 21:51:15 83° E 21:57:25 10° S
ERS-2 4.5 21:50:33 10° N 21:53:42 28° WNW 21:56:50 10° SW
Cosmos 1709 Rocket 4.2 21:48:03 10° N 21:54:03 54° ENE 21:59:47 11° SSE
SPOT 3 Rocket 3.5 21:49:36 10° SSE 21:54:46 81° ENE 21:59:57 10° NNW
Cosmos 1437 4.5 21:54:17 13° ESE 21:54:51 13° E 21:56:19 10° ENE
Resurs 1-3 4.3 21:52:44 10° S 21:57:01 53° W 22:01:20 10° NNW
Landsat 7 3.8 21:52:48 10° SSE 21:57:33 75° ENE 22:02:19 10° N
Cosmos 1844 3.7 21:52:09 10° SSW 21:57:49 67° ESE 22:03:27 10° NNE
Cosmos 968 Rocket 3.6 21:53:20 10° SSW 21:58:36 84° WNW 22:03:52 10° NNE
BREEZE-M DEB (TANK) 4.2 21:54:45 10° W 21:58:58 56° SSW 22:06:54 11° ESE
ATLAS 5 CENTAUR R/B 2.4 21:54:36 10° NW 22:00:05 79° NE 22:05:41 14° SE
Cosmos 1328 Rocket 4.4 21:59:49 13° SSE 22:03:12 32° E 22:07:08 10° NNE
ATLAS 2AS CENTAUR R/B 4.3 21:57:59 10° NW 22:04:40 31° NNE 22:10:57 10° E
BREEZE M DEB (TANK) 4.2 22:00:58 10° WSW 22:05:01 87° SSE 22:19:30 10° E
Cosmos 1486 Rocket 4.1 22:00:47 10° SSW 22:06:07 89° WNW 22:11:30 10° NNE
IGS 5A 3.6 22:04:35 10° S 22:08:43 76° WSW 22:12:55 10° NNW
Meteor 1-26 Rocket 4.4 22:03:23 10° S 22:08:54 53° E 22:14:17 10° NNE
Cosmos 1833 Rocket 3.6 22:04:23 10° NNW 22:09:40 38° NE 22:14:00 14° ESE
CARTOSAT-1 4.2 22:07:01 16° SE 22:10:06 42° ENE 22:14:10 10° N
Cosmos 2315 Rocket 4.2 22:05:26 10° SSE 22:11:36 55° E 22:17:49 10° NNE
CRYOSAT 2 4.5 22:07:53 13° SSE 22:12:14 61° E 22:17:04 10° N
S3M 4.1 22:05:56 10° S 22:12:20 85° W 22:18:43 10° N
BREEZE-M R/B 1.9 22:10:55 10° SW 22:13:22 45° SSE 22:15:12 15° E
Cosmos 1666 4.3 22:12:52 10° NNE 22:15:44 20° ENE 22:17:20 16° ESE
Cosmos 1666 Rocket 3.5 22:11:58 10° N 22:16:24 80° E 22:19:58 15° SSE
USA 215 4.3 22:12:28 10° ENE 22:18:34 44° N 22:24:41 10° WNW
Meteor 2-17 Rocket 4.5 22:13:13 10° N 22:19:25 85° E 22:25:05 13° S
Cosmos 1933 3.5 22:18:39 10° SSW 22:22:42 76° W 22:26:45 10° N
USA 245 1.8 22:23:41 36° SSE 22:24:28 77° ENE 22:26:43 10° N
USA 305 3.7 22:20:26 10° WNW 22:24:35 48° NNE 22:28:38 11° E
Cosmos 783 Rocket 4.5 22:20:26 10° NNW 22:25:43 83° ENE 22:29:28 19° SSE
Cosmos 1242 Rocket 2.6 22:24:39 10° SSW 22:28:15 76° WNW 22:31:49 10° N
Cosmos 1437 Rocket 4.5 22:28:49 10° SW 22:32:21 33° WNW 22:35:59 10° N
BREEZE M DEB (TANK) 1.7 22:28:02 10° W 22:32:56 85° NNE 22:34:07 27° E
Cosmos 773 Rocket 4.0 22:28:12 10° NNW 22:33:33 77° ENE 22:37:01 22° SSE
Resurs 01 Rocket 2.9 22:30:18 10° SSW 22:34:27 38° W 22:38:37 10° NNW
Spot 2 Rocket 3.5 22:34:12 19° SSE 22:37:54 90° NNE 22:42:59 10° NNW
Sich 1 4.3 22:34:35 10° NNW 22:38:35 37° W 22:42:35 10° SSW
SJ 16-02 2.6 22:38:19 22° ESE 22:39:02 23° E 22:42:30 10° NE
COSMOS 2406 3.4 22:34:35 10° NNW 22:40:12 60° ENE 22:43:43 23° SE
Cosmos 2082 Rocket 3.2 22:37:42 10° NNW 22:42:54 37° NE 22:46:29 18° ESE
USA 306 3.5 22:39:35 10° WNW 22:43:47 54° NNE 22:47:00 16° E
Meteor 2-6 Rocket 4.5 22:41:14 22° SSE 22:44:22 46° E 22:49:36 10° NNE
Cosmos 1500 3.0 22:41:38 10° N 22:45:24 83° E 22:47:10 30° SSE
CZ-4C R/B 3.0 22:38:23 10° NW 22:45:29 79° NE 22:51:18 22° SE
Cosmos 1782 2.9 22:43:16 13° SSW 22:46:47 74° WNW 22:50:47 10° N
ERS-1 Rocket 2.9 22:50:52 25° SSE 22:53:50 84° ENE 22:58:53 10° NNW
SPOT 5 3.0 22:52:52 26° SSE 22:55:48 85° ENE 23:01:06 10° NNW
H-2A R/B 3.9 22:52:40 10° NNE 22:56:40 41° E 22:57:49 34° SE
Meteor 1-11 Rocket 4.3 22:53:55 10° N 22:59:44 49° ENE 23:02:44 27° SE
Cosmos 1271 Rocket 3.4 23:00:22 34° ESE 23:01:06 37° E 23:04:49 10° NNE
Cosmos 1151 Rocket 3.7 22:58:03 10° SSW 23:02:16 53° WNW 23:06:35 10° N
Cosmos 1777 Rocket 3.9 22:58:39 18° S 23:02:30 69° ESE 23:07:41 10° NNE
CREW DRAGON DEMO-1 DEB 2.8 23:01:43 10° WNW 23:04:21 58° NNE 23:04:38 53° NE
Terra 1.8 23:02:23 31° SSE 23:04:37 75° ENE 23:09:24 10° N
Cosmos 2278 Rocket 2.3 23:05:44 23° S 23:09:04 55° ESE 23:14:37 10° NE
USA 307 3.2 23:04:54 10° WNW 23:09:10 65° NNE 23:11:25 26° E
Cosmos 1340 Rocket 4.3 23:09:45 10° NNE 23:13:10 25° ENE 23:14:05 23° E
CZ-4B DEB 4.2 23:16:05 63° S 23:16:32 84° WSW 23:19:47 10° NNW
Cosmos 1515 Rocket 3.6 23:17:35 27° SSW 23:19:56 76° W 23:24:22 10° N
Cosmos 1544 4.2 23:17:29 10° NNE 23:20:39 28° ENE 23:20:56 28° E
X-37B 2.5 23:18:42 10° WSW 23:20:09 20° SW 23:20:09 20° SW
Cosmos 2084 3.3 23:17:53 10° SW 23:21:57 87° SE 23:26:15 10° NE
USA 308 3.0 23:18:23 10° WNW 23:22:41 74° NNE 23:24:24 35° ESE
Cosmos 1869 Rocket 3.8 23:18:35 10° N 23:22:50 54° ENE 23:23:54 42° SE
Cosmos 1536 3.3 23:19:09 10° N 23:23:04 45° ENE 23:23:48 40° ESE
ARIANE 5 R/B 3.8 23:20:40 19° SSW 23:23:05 34° W 23:27:04 10° NNW
Meteor 1-10 Rocket 4.1 23:22:59 30° S 23:25:52 78° E 23:31:32 10° NNE
Cosmos 1437 4.4 23:25:47 20° WSW 23:26:57 27° WNW 23:29:28 10° N
Cosmos 2154 Rocket 4.0 23:23:47 10° N 23:30:10 73° E 23:33:03 34° SSE
Cosmos 1943 Rocket 3.9 23:30:26 17° E 23:30:26 17° E 23:33:42 10° ENE
Cosmos 1812 3.5 23:31:31 26° SW 23:33:22 47° WNW 23:37:07 10° N
Cosmos 2184 Rocket 4.1 23:31:56 10° NNW 23:38:10 72° W 23:41:19 30° S
Cosmos 44 4.5 23:34:16 10° NNW 23:39:28 42° NE 23:42:24 23° E
ALOS 2 4.3 23:38:41 20° E 23:39:57 22° ENE 23:43:22 10° NNE
Cosmos 1707 Rocket 4.3 23:42:54 36° E 23:43:08 36° E 23:47:10 10° NNE
NOSS 3-4 (A) 3.8 23:36:16 10° NW 23:43:12 89° SW 23:47:03 33° SE
NOSS 3-4 (C) 3.8 23:36:22 10° NW 23:43:18 89° SW 23:47:10 33° SE
ATLAS 5 CENTAUR R/B 3.9 23:39:50 10° WNW 23:44:29 25° WSW 23:47:13 19° SSW
Cosmos 2074 Rocket 4.3 23:39:53 10° NNW 23:46:05 61° W 23:49:23 28° SSW
Cosmos 1666 3.9 23:48:00 10° NNW 23:51:23 33° W 23:52:11 29° WSW
Cosmos 2112 Rocket 4.3 23:46:47 10° NNW 23:52:05 59° ENE 23:53:50 40° ESE
NOSS 3-3 (A) 4.4 23:47:17 10° WSW 23:53:06 61° NW 23:59:50 10° NE
NOSS 3-3 (C) 4.4 23:47:23 10° WSW 23:53:13 62° NW 23:59:57 10° NE
Cosmos 1833 Rocket 3.4 23:48:22 10° NW 23:53:40 43° WSW 23:55:42 31° SSW
